Starlink 30364

operational
NORAD ID: 57741 Int'l Des: 2023-131 Owner: SPXS Country: US Constellation: starlink
LEOCIRCULAR

Über Starlink 30364

Beschreibung wird geladen...

Live-Position

3D-Globus wird geladen...

Nächste Überflüge

Höhenverlauf

Altitude vs Time

uPlot chart will show altitude changes over time

Zweizeiliger Elementsatz

1 57741U 23131K 25351.45234115 .00000066 00000-0 19990-4 0 9999
2 57741 43.0027 258.6395 0001101 272.4058 87.6658 15.02534913127554
Epoch: 17. Dez. 2025 • Age: 12 hours

Aktueller Status

Höhe 571.3 km
Geschwindigkeit 7.58 km/s
Subsatellitenpunkt -42.13°S, 105.25°E
Startdatum 1. Sept. 2023
Alter 2.2 years
Typ internet

Technische Details

Klassifizierung Payload
Masse 730.00 kg
Trockenmasse 700.00 kg
Gesamtmasse 730.00 kg
Länge 0.30 m
Durchmesser 4.10 m
Spannweite 29.00 m
Form Box + pan
Hersteller SPXS
Bus-Typ Starlink V2M
Phasenstatus In Orbit
Besitzer/Staat SPXS/US

Große Konstellationen

Loading constellations...